AL, 04, 1871081700,   , BEST,   0, 112N,  307W,  40,     , TS, , , , , , , , , , , , , ,    UNNAMED
AL, 04, 1871081706,   , BEST,   0, 115N,  322W,  40,     , TS, , , , , , , , , , , , , ,    UNNAMED
AL, 04, 1871081712,   , BEST,   0, 118N,  339W,  40,     , TS, , , , , , , , , , , , , ,    UNNAMED
AL, 04, 1871081718,   , BEST,   0, 123N,  355W,  40,     , TS, , , , , , , , , , , , , ,    UNNAMED
AL, 04, 1871081800,   , BEST,   0, 129N,  374W,  50,     , TS, , , , , , , , , , , , , ,    UNNAMED
AL, 04, 1871081806,   , BEST,   0, 135N,  392W,  50,     , TS, , , , , , , , , , , , , ,    UNNAMED
AL, 04, 1871081812,   , BEST,   0, 140N,  410W,  50,     , TS, , , , , , , , , , , , , ,    UNNAMED
AL, 04, 1871081818,   , BEST,   0, 142N,  425W,  50,     , TS, , , , , , , , , , , , , ,    UNNAMED
AL, 04, 1871081900,   , BEST,   0, 143N,  445W,  60,     , TS, , , , , , , , , , , , , ,    UNNAMED
AL, 04, 1871081906,   , BEST,   0, 145N,  464W,  60,     , TS, , , , , , , , , , , , , ,    UNNAMED
AL, 04, 1871081912,   , BEST,   0, 147N,  480W,  70,     , HU, , , , , , , , , , , , , ,    UNNAMED
AL, 04, 1871081918,   , BEST,   0, 149N,  499W,  70,     , HU, , , , , , , , , , , , , ,    UNNAMED
AL, 04, 1871082000,   , BEST,   0, 151N,  522W,  80,     , HU, , , , , , , , , , , , , ,    UNNAMED
AL, 04, 1871082006,   , BEST,   0, 153N,  545W,  80,     , HU, , , , , , , , , , , , , ,    UNNAMED
AL, 04, 1871082012,   , BEST,   0, 154N,  564W,  90,     , HU, , , , , , , , , , , , , ,    UNNAMED
AL, 04, 1871082018,   , BEST,   0, 158N,  582W,  90,     , HU, , , , , , , , , , , , , ,    UNNAMED
AL, 04, 1871082100,   , BEST,   0, 164N,  600W, 100,     , HU, , , , , , , , , , , , , ,    UNNAMED
AL, 04, 1871082106,   , BEST,   0, 171N,  616W, 100,     , HU, , , , , , , , , , , , , ,    UNNAMED
AL, 04, 1871082112,   , BEST,   0, 177N,  629W, 100,  965, HU, , , , , , , , , , , , , ,    UNNAMED
AL, 04, 1871082118,   , BEST,   0, 182N,  640W, 100,     , HU, , , , , , , , , , , , , ,    UNNAMED
AL, 04, 1871082200,   , BEST,   0, 189N,  653W, 100,  962, HU, , , , , , , , , , , , , ,    UNNAMED
AL, 04, 1871082206,   , BEST,   0, 195N,  665W, 100,     , HU, , , , , , , , , , , , , ,    UNNAMED
AL, 04, 1871082212,   , BEST,   0, 200N,  675W,  90,     , HU, , , , , , , , , , , , , ,    UNNAMED
AL, 04, 1871082218,   , BEST,   0, 207N,  686W,  90,     , HU, , , , , , , , , , , , , ,    UNNAMED
AL, 04, 1871082300,   , BEST,   0, 212N,  696W,  90,     , HU, , , , , , , , , , , , , ,    UNNAMED
AL, 04, 1871082306,   , BEST,   0, 220N,  710W,  90,     , HU, , , , , , , , , , , , , ,    UNNAMED
AL, 04, 1871082312,   , BEST,   0, 225N,  723W,  90,     , HU, , , , , , , , , , , , , ,    UNNAMED
AL, 04, 1871082318,   , BEST,   0, 232N,  735W,  90,     , HU, , , , , , , , , , , , , ,    UNNAMED
AL, 04, 1871082400,   , BEST,   0, 241N,  750W,  90,     , HU, , , , , , , , , , , , , ,    UNNAMED
AL, 04, 1871082406,   , BEST,   0, 250N,  764W,  90,     , HU, , , , , , , , , , , , , ,    UNNAMED
AL, 04, 1871082412,   , BEST,   0, 257N,  776W,  90,     , HU, , , , , , , , , , , , , ,    UNNAMED
AL, 04, 1871082418,   , BEST,   0, 263N,  786W,  90,     , HU, , , , , , , , , , , , , ,    UNNAMED
AL, 04, 1871082500,   , BEST,   0, 270N,  795W,  90,     , HU, , , , , , , , , , , , , ,    UNNAMED
AL, 04, 1871082505,   , BEST,   0, 271N,  803W,  90,     , HU, , , , , , , , , , , , , ,    UNNAMED
AL, 04, 1871082506,   , BEST,   0, 277N,  805W,  90,     , HU, , , , , , , , , , , , , ,    UNNAMED
AL, 04, 1871082512,   , BEST,   0, 283N,  813W,  70,     , HU, , , , , , , , , , , , , ,    UNNAMED
AL, 04, 1871082518,   , BEST,   0, 289N,  822W,  50,     , TS, , , , , , , , , , , , , ,    UNNAMED
AL, 04, 1871082600,   , BEST,   0, 294N,  831W,  40,     , TS, , , , , , , , , , , , , ,    UNNAMED
AL, 04, 1871082606,   , BEST,   0, 299N,  838W,  40,     , TS, , , , , , , , , , , , , ,    UNNAMED
AL, 04, 1871082612,   , BEST,   0, 305N,  843W,  40,     , TS, , , , , , , , , , , , , ,    UNNAMED
AL, 04, 1871082618,   , BEST,   0, 309N,  845W,  40,     , TS, , , , , , , , , , , , , ,    UNNAMED
AL, 04, 1871082700,   , BEST,   0, 313N,  845W,  30,     , TD, , , , , , , , , , , , , ,    UNNAMED
AL, 04, 1871082706,   , BEST,   0, 317N,  844W,  30,     , TD, , , , , , , , , , , , , ,    UNNAMED
AL, 04, 1871082712,   , BEST,   0, 320N,  840W,  30,     , TD, , , , , , , , , , , , , ,    UNNAMED
AL, 04, 1871082718,   , BEST,   0, 321N,  835W,  30,     , TD, , , , , , , , , , , , , ,    UNNAMED
AL, 04, 1871082800,   , BEST,   0, 322N,  830W,  30,     , TD, , , , , , , , , , , , , ,    UNNAMED
AL, 04, 1871082806,   , BEST,   0, 322N,  825W,  30,     , TD, , , , , , , , , , , , , ,    UNNAMED
AL, 04, 1871082812,   , BEST,   0, 323N,  821W,  30,     , TD, , , , , , , , , , , , , ,    UNNAMED
AL, 04, 1871082818,   , BEST,   0, 324N,  810W,  30,     , TD, , , , , , , , , , , , , ,    UNNAMED
AL, 04, 1871082900,   , BEST,   0, 325N,  799W,  40,     , TS, , , , , , , , , , , , , ,    UNNAMED
AL, 04, 1871082906,   , BEST,   0, 327N,  786W,  40,     , TS, , , , , , , , , , , , , ,    UNNAMED
AL, 04, 1871082912,   , BEST,   0, 330N,  775W,  50,     , TS, , , , , , , , , , , , , ,    UNNAMED
AL, 04, 1871082918,   , BEST,   0, 340N,  761W,  50,     , TS, , , , , , , , , , , , , ,    UNNAMED
AL, 04, 1871083000,   , BEST,   0, 355N,  743W,  50,     , TS, , , , , , , , , , , , , ,    UNNAMED
AL, 04, 1871083006,   , BEST,   0, 373N,  724W,  50,     , TS, , , , , , , , , , , , , ,    UNNAMED
AL, 04, 1871083012,   , BEST,   0, 395N,  705W,  60,     , TS, , , , , , , , , , , , , ,    UNNAMED
AL, 04, 1871083018,   , BEST,   0, 420N,  685W,  60,     , TS, , , , , , , , , , , , , ,    UNNAMED
